International Falls, MN

8:03 AM CDT on September 19, 2017 (GMT -0500)
Falls International

Weather History for KINL - February, 2013

Change the Weather History Date:

Saturday, February 9, 2013

  Actual Average Record
Temperature  
Mean Temperature 23 °F 8 °F  
Max Temperature 27 °F 20 °F 48 °F (1976)
Min Temperature 18 °F -4 °F -36 °F (1909)
Degree Days  
Heating Degree Days 42 57  
Month to date heating degree days 596 522  
Since 1 July heating degree days 6558 6575  
Cooling Degree Days 0 0  
Month to date cooling degree days 0 0  
Year to date cooling degree days 0 0  
Moisture  
Dew Point 20 °F    
Average Humidity 80    
Maximum Humidity 92    
Minimum Humidity 67    
Precipitation  
Precipitation T in 0.02 in 0.34 in (1966)
Month to date precipitation 0.17 0.15  
Year to date precipitation 2.32 0.77  
Snow  
Snow T in 0.30 in 6.60 in (1985)
Month to date snowfall 5.1 3.4  
Since 1 July snowfall 54.6 49.4  
Snow Depth 20.00 in    
Sea Level Pressure  
Sea Level Pressure 30.01 in    
Wind  
Wind Speed 4 mph (South)    
Max Wind Speed 12 mph    
Max Gust Speed 17 mph    
Visibility 6 miles    
Events      
T = Trace of Precipitation, MM = Missing Value Source: NWS Daily Summary

Daily Weather History Graph

Daily Weather History Graph

Search for Another Location

Airport or City:

Trip Planner

Search our weather history database for the weather conditions in past years. The results will help you decide how hot, cold, wet, or windy it might be!

Date:

Astronomy

Feb. 09, 2013 Rise Set
Actual Time 7:30 AM CST 5:25 PM CST
Civil Twilight 6:57 AM CST 5:58 PM CST
Nautical Twilight 6:20 AM CST 6:35 PM CST
Astronomical Twilight 5:44 AM CST 7:12 PM CST
Moon 6:41 AM CST (2/9) 5:12 PM CST (2/9)
Length of Visible Light 11h 00m
Length of Day
9h 55m
Waning Crescent, 0% of the Moon is Illuminated
Feb 9
Waning Crescent
Feb 10
New
Feb 17
First Quarter
Feb 25
Full
Mar 4
Last Quarter

Hourly Weather History & Observations

Time (CST) Temp. Windchill Dew Point Humidity Pressure Visibility Wind Dir Wind Speed Gust Speed Precip Events Conditions
12:55 AM 18.0 °F 7.7 °F 12.0 °F 78% 30.16 in 10.0 mi SE 8.1 mph - N/A   Overcast
1:55 AM 19.0 °F 10.0 °F 10.9 °F 71% 30.14 in 10.0 mi SSE 6.9 mph - N/A   Overcast
2:55 AM 19.0 °F 12.3 °F 10.9 °F 71% 30.11 in 10.0 mi SSE 4.6 mph - N/A   Overcast
3:55 AM 19.0 °F 12.3 °F 10.9 °F 71% 30.08 in 10.0 mi SSE 4.6 mph - N/A   Overcast
4:55 AM 19.9 °F 14.9 °F 12.0 °F 71% 30.07 in 10.0 mi South 3.5 mph - N/A   Overcast
5:55 AM 19.9 °F 12.1 °F 12.9 °F 74% 30.06 in 10.0 mi Variable 5.8 mph - N/A   Overcast
6:55 AM 19.9 °F 12.1 °F 14.0 °F 78% 30.05 in 10.0 mi South 5.8 mph - N/A   Overcast
7:55 AM 19.9 °F 12.1 °F 15.1 °F 81% 30.05 in 10.0 mi South 5.8 mph - N/A   Overcast
8:55 AM 19.9 °F 13.4 °F 16.0 °F 85% 30.04 in 6.0 mi South 4.6 mph - N/A   Overcast
9:37 AM 21.2 °F 13.6 °F 17.6 °F 86% 29.96 in 3.0 mi South 5.8 mph - N/A   Overcast
9:55 AM 21.0 °F 13.4 °F 19.0 °F 92% 30.03 in 2.5 mi South 5.8 mph - N/A   Overcast
10:55 AM 21.9 °F 11.7 °F 19.9 °F 92% 30.02 in 2.0 mi South 9.2 mph - N/A   Overcast
11:55 AM 24.1 °F 16.0 °F 21.0 °F 88% 30.01 in 3.0 mi South 6.9 mph - N/A   Overcast
12:55 PM 24.1 °F 16.0 °F 21.9 °F 91% 30.00 in 2.5 mi Variable 6.9 mph - N/A   Overcast
1:16 PM 24.8 °F 16.1 °F 23.0 °F 93% 29.92 in 3.0 mi SSW 8.1 mph - N/A   Overcast
1:28 PM 24.8 °F 16.1 °F 23.0 °F 93% 29.92 in 2.5 mi South 8.1 mph - N/A   Overcast
1:43 PM 24.8 °F 19.1 °F 23.0 °F 93% 29.91 in 3.0 mi Variable 4.6 mph - N/A   Overcast
1:55 PM 25.0 °F 20.7 °F 23.0 °F 92% 29.98 in 3.0 mi SSW 3.5 mph - N/A   Overcast
2:55 PM 26.1 °F 20.5 °F 24.1 °F 92% 29.97 in 3.0 mi Variable 4.6 mph - N/A   Overcast
3:55 PM 26.1 °F 21.9 °F 24.1 °F 92% 29.98 in 3.0 mi Variable 3.5 mph - N/A   Overcast
4:55 PM 27.0 °F - 24.1 °F 89% 29.97 in 4.0 mi Calm Calm - N/A   Overcast
5:55 PM 27.0 °F - 25.0 °F 92% 29.98 in 6.0 mi Calm Calm - N/A   Overcast
6:55 PM 27.0 °F 23.0 °F 25.0 °F 92% 29.99 in 5.0 mi South 3.5 mph - N/A   Overcast
7:55 PM 27.0 °F - 25.0 °F 92% 29.99 in 5.0 mi Calm Calm - N/A   Overcast
8:55 PM 27.0 °F - 25.0 °F 92% 29.99 in 5.0 mi Calm Calm - N/A   Overcast
9:55 PM 27.0 °F - 25.0 °F 92% 29.99 in 5.0 mi Calm Calm - N/A   Overcast
10:55 PM 26.1 °F - 25.0 °F 96% 29.99 in 6.0 mi Calm Calm - N/A   Overcast
11:55 PM 26.1 °F - 24.1 °F 92% 29.99 in 6.0 mi Calm Calm - N/A   Overcast